• In Czech Republic
  • List of Countries
  • For 7 days
  • Water Temperature
  • Satellite Maps
  • Weather Map
  • Weather Widgets
  • user-avatar
    Login

    Hourly Weather Prescot

    Today, 20 November, Monday

    Time Temperature Precipitation Wind Pressure Humidity
    00:00 +6°C° 0 mm 5 mps 758 mmHg 89%
    01:00 +7°C° 0.8 mm 6 mps 757 mmHg 90%
    02:00 +8°C° 0.8 mm 6 mps 756 mmHg 91%
    03:00 +8°C° 0.8 mm 6 mps 755 mmHg 92%
    04:00 +9°C° 0.4 mm 7 mps 755 mmHg 92%
    05:00 +9°C° 0.4 mm 7 mps 754 mmHg 91%
    06:00 +10°C° 0.4 mm 8 mps 753 mmHg 91%
    07:00 +10°C° 0.1 mm 8 mps 753 mmHg 90%
    08:00 +11°C° 0.1 mm 7 mps 753 mmHg 90%
    09:00 +11°C° 0.1 mm 7 mps 753 mmHg 90%
    10:00 +11°C° 0.1 mm 8 mps 753 mmHg 87%
    11:00 +12°C° 0.1 mm 8 mps 753 mmHg 85%
    12:00 +12°C° 0.1 mm 8 mps 752 mmHg 82%
    13:00 +12°C° 0.1 mm 8 mps 752 mmHg 83%
    14:00 +12°C° 0.1 mm 8 mps 752 mmHg 83%
    15:00 +12°C° 0.1 mm 7 mps 752 mmHg 83%
    16:00 +13°C° 0.1 mm 6 mps 752 mmHg 86%
    17:00 +12°C° 0.1 mm 5 mps 752 mmHg 90%
    18:00 +12°C° 0.1 mm 5 mps 752 mmHg 93%
    19:00 +12°C° 0.5 mm 4 mps 752 mmHg 94%
    20:00 +12°C° 0.5 mm 3 mps 752 mmHg 96%
    21:00 +12°C° 0.5 mm 3 mps 752 mmHg 97%
    22:00 +12°C° 0.7 mm 3 mps 752 mmHg 97%
    23:00 +12°C° 0.7 mm 3 mps 752 mmHg 97%

    Tomorrow, 21 November, Tuesday

    Time Temperature Precipitation Wind Pressure Humidity
    00:00 +12°C° 0.7 mm 3 mps 752 mmHg 97%
    01:00 +12°C° 0.2 mm 3 mps 752 mmHg 96%
    02:00 +12°C° 0.2 mm 4 mps 752 mmHg 94%
    03:00 +13°C° 0.2 mm 5 mps 752 mmHg 93%
    04:00 +13°C° 0.1 mm 5 mps 751 mmHg 93%
    05:00 +13°C° 0.1 mm 5 mps 751 mmHg 92%
    06:00 +13°C° 0.1 mm 5 mps 751 mmHg 92%
    07:00 +12°C° 0 mm 5 mps 750 mmHg 92%
    08:00 +12°C° 0 mm 5 mps 750 mmHg 91%
    09:00 +11°C° 0 mm 6 mps 750 mmHg 91%
    10:00 +11°C° 0 mm 6 mps 749 mmHg 88%
    11:00 +11°C° 0 mm 6 mps 749 mmHg 85%
    12:00 +11°C° 0 mm 6 mps 749 mmHg 82%
    13:00 +12°C° 0 mm 7 mps 748 mmHg 82%
    14:00 +12°C° 0 mm 7 mps 747 mmHg 82%
    15:00 +12°C° 0 mm 7 mps 746 mmHg 82%
    16:00 +12°C° 0.1 mm 7 mps 746 mmHg 83%
    17:00 +13°C° 0.1 mm 8 mps 745 mmHg 85%
    18:00 +13°C° 0.1 mm 8 mps 745 mmHg 86%
    19:00 +13°C° 0.5 mm 8 mps 744 mmHg 87%
    20:00 +12°C° 0.5 mm 8 mps 744 mmHg 88%
    21:00 +12°C° 0.5 mm 7 mps 744 mmHg 89%
    22:00 +12°C° 1.5 mm 7 mps 743 mmHg 89%
    23:00 +12°C° 1.5 mm 7 mps 743 mmHg 89%

    Day after tomorrow, 22 November, Wednesday

    Time Temperature Precipitation Wind Pressure Humidity
    00:00 +14°C° 1.5 mm 7 mps 742 mmHg 89%
    01:00 +14°C° 1.3 mm 7 mps 742 mmHg 89%
    02:00 +14°C° 1.3 mm 7 mps 741 mmHg 90%
    03:00 +14°C° 1.3 mm 7 mps 741 mmHg 90%
    04:00 +14°C° 0.8 mm 7 mps 741 mmHg 89%
    05:00 +12°C° 0.8 mm 7 mps 741 mmHg 88%
    06:00 +13°C° 0.8 mm 6 mps 741 mmHg 86%
    07:00 +12°C° 0.5 mm 7 mps 740 mmHg 86%
    08:00 +12°C° 0.5 mm 8 mps 740 mmHg 85%
    09:00 +13°C° 0.5 mm 8 mps 739 mmHg 84%
    10:00 +13°C° 0.3 mm 9 mps 739 mmHg 82%
    11:00 +13°C° 0.3 mm 9 mps 738 mmHg 81%
    12:00 +13°C° 0.3 mm 9 mps 737 mmHg 79%
    13:00 +13°C° 0.7 mm 9 mps 737 mmHg 80%
    14:00 +13°C° 0.7 mm 10 mps 736 mmHg 81%
    15:00 +13°C° 0.7 mm 10 mps 735 mmHg 81%
    16:00 +13°C° 0.8 mm 10 mps 734 mmHg 82%
    17:00 +13°C° 0.8 mm 9 mps 734 mmHg 82%
    18:00 +12°C° 0.8 mm 9 mps 733 mmHg 83%
    19:00 +12°C° 0.5 mm 8 mps 733 mmHg 84%
    20:00 +12°C° 0.5 mm 8 mps 733 mmHg 84%
    21:00 +12°C° 0.5 mm 7 mps 733 mmHg 84%
    22:00 +12°C° 0.5 mm 7 mps 733 mmHg 85%
    23:00 +12°C° 0.5 mm 7 mps 734 mmHg 85%

    23 November, Thursday

    Time Temperature Precipitation Wind Pressure Humidity
    00:00 +11°C° 0.5 mm 7 mps 734 mmHg 86%
    01:00 +11°C° 0.2 mm 7 mps 735 mmHg 86%
    02:00 +11°C° 0.2 mm 7 mps 735 mmHg 86%
    03:00 +11°C° 0.2 mm 7 mps 736 mmHg 86%
    04:00 +11°C° 0.1 mm 6 mps 737 mmHg 85%
    05:00 +11°C° 0.1 mm 6 mps 738 mmHg 85%
    06:00 +10°C° 0.1 mm 5 mps 739 mmHg 84%
    07:00 +10°C° 0.1 mm 5 mps 740 mmHg 85%
    08:00 +10°C° 0.1 mm 5 mps 741 mmHg 86%
    09:00 +12°C° 0.1 mm 5 mps 741 mmHg 87%
    10:00 +12°C° 0.1 mm 5 mps 741 mmHg 84%
    11:00 +13°C° 0.1 mm 6 mps 741 mmHg 81%
    12:00 +12°C° 0.1 mm 7 mps 742 mmHg 77%
    13:00 +13°C° 0.1 mm 8 mps 741 mmHg 78%
    14:00 +13°C° 0.1 mm 9 mps 741 mmHg 79%
    15:00 +13°C° 0.1 mm 9 mps 741 mmHg 79%
    16:00 +12°C° 0 mm 9 mps 741 mmHg 79%
    17:00 +11°C° 0 mm 8 mps 742 mmHg 79%
    18:00 +11°C° 0 mm 8 mps 742 mmHg 79%
    19:00 +11°C° 0 mm 7 mps 742 mmHg 80%
    20:00 +10°C° 0 mm 6 mps 742 mmHg 80%
    21:00 +10°C° 0 mm 6 mps 742 mmHg 81%
    22:00 +10°C° 0.4 mm 5 mps 742 mmHg 83%
    23:00 +10°C° 0.4 mm 5 mps 741 mmHg 86%

    24 November, Friday

    Time Temperature Precipitation Wind Pressure Humidity
    00:00 +10°C° 0.4 mm 5 mps 741 mmHg 89%
    01:00 +10°C° 0.4 mm 6 mps 741 mmHg 86%
    02:00 +9°C° 0.4 mm 7 mps 741 mmHg 83%
    03:00 +9°C° 0.4 mm 8 mps 741 mmHg 80%
    04:00 +7°C° 0 mm 8 mps 741 mmHg 78%
    05:00 +7°C° 0 mm 8 mps 742 mmHg 76%
    06:00 +6°C° 0 mm 8 mps 742 mmHg 74%
    07:00 +6°C° 0 mm 8 mps 743 mmHg 73%
    08:00 +6°C° 0 mm 8 mps 743 mmHg 72%
    09:00 +6°C° 0 mm 8 mps 744 mmHg 71%
    10:00 +7°C° 0 mm 9 mps 744 mmHg 68%
    11:00 +7°C° 0 mm 9 mps 744 mmHg 65%
    12:00 +8°C° 0 mm 9 mps 744 mmHg 63%
    13:00 +9°C° 0 mm 8 mps 745 mmHg 65%
    14:00 +8°C° 0 mm 7 mps 745 mmHg 67%
    15:00 +8°C° 0 mm 6 mps 746 mmHg 70%
    16:00 +7°C° 0 mm 5 mps 746 mmHg 72%
    17:00 +7°C° 0 mm 5 mps 747 mmHg 74%
    18:00 +6°C° 0 mm 4 mps 748 mmHg 76%
    19:00 +7°C° 0 mm 3 mps 748 mmHg 76%
    20:00 +7°C° 0 mm 3 mps 749 mmHg 76%
    21:00 +7°C° 0 mm 2 mps 749 mmHg 76%
    22:00 +5°C° 0 mm 3 mps 749 mmHg 76%
    23:00 +5°C° 0 mm 3 mps 750 mmHg 76%

    25 November, Saturday

    Time Temperature Precipitation Wind Pressure Humidity
    00:00 +5°C° 0 mm 3 mps 750 mmHg 75%
    01:00 +5°C° 0.1 mm 3 mps 750 mmHg 74%
    02:00 +5°C° 0.1 mm 3 mps 750 mmHg 72%
    03:00 +4°C° 0.1 mm 3 mps 750 mmHg 71%
    04:00 +4°C° 0 mm 3 mps 750 mmHg 70%
    05:00 +4°C° 0 mm 3 mps 750 mmHg 69%
    06:00 +4°C° 0 mm 3 mps 751 mmHg 68%
    07:00 +4°C° 0 mm 3 mps 751 mmHg 67%
    08:00 +4°C° 0 mm 3 mps 752 mmHg 67%
    09:00 +3°C° 0 mm 3 mps 752 mmHg 66%
    10:00 +4°C° 0 mm 3 mps 753 mmHg 65%
    11:00 +4°C° 0 mm 3 mps 753 mmHg 63%
    12:00 +5°C° 0 mm 3 mps 754 mmHg 61%
    13:00 +5°C° 0 mm 3 mps 754 mmHg 63%
    14:00 +5°C° 0 mm 3 mps 754 mmHg 65%
    15:00 +5°C° 0 mm 4 mps 755 mmHg 66%
    16:00 +4°C° 0.1 mm 4 mps 755 mmHg 68%
    17:00 +4°C° 0.1 mm 4 mps 756 mmHg 70%
    18:00 +4°C° 0.1 mm 4 mps 757 mmHg 72%
    19:00 +4°C° 0.2 mm 4 mps 757 mmHg 72%
    20:00 +4°C° 0.2 mm 4 mps 758 mmHg 73%
    21:00 +4°C° 0.2 mm 4 mps 758 mmHg 73%
    22:00 +3°C° 0.2 mm 4 mps 759 mmHg 73%
    23:00 +3°C° 0.2 mm 4 mps 759 mmHg 74%
    Show more